Weather reports worldwide

Advertisment
Oviedo, Spain (8015): temperature & dewpoint: 06.12.2018 00:00:00 - 12.12.2018 00:00:00 (CET)Oviedo, Spain (8015): wind speed: 06.12.2018 00:00:00 - 12.12.2018 00:00:00 (CET)Oviedo, Spain (8015): wind direction: 06.12.2018 00:00:00 - 12.12.2018 00:00:00 (CET)Oviedo, Spain (8015): reduced air pressure: 06.12.2018 00:00:00 - 12.12.2018 00:00:00 (CET)Oviedo, Spain (8015): visibility: 06.12.2018 00:00:00 - 12.12.2018 00:00:00 (CET)Oviedo, Spain (8015): precipitation: 06.12.2018 00:00:00 - 12.12.2018 00:00:00 (CET)
Date & Time tt [°C] td [°C] ff [km/h] ff [kn] dd ppp [hPa] vv [km] rr [mm]
12.12.2018 00:00:00 10,1 8,4 5 3 NW 1023,9 19 0,0
11.12.2018 23:00:00 9,9 8,0 9 5 W 1023,9 17 0,0
11.12.2018 22:00:00 10,0 6,0 5 3 NW 1023,6 10 -
11.12.2018 21:00:00 9,7 6,2 8 4 S 1023,3 16 0,0
11.12.2018 20:00:00 10,1 6,2 8 4 S 1023,1 15 0,0
11.12.2018 19:00:00 10,8 6,3 4 2 WNW 1023,0 15 -
11.12.2018 18:00:00 11,7 5,8 8 4 ENE 1022,0 16 0,0
11.12.2018 17:00:00 13,0 5,4 5 3 NE 1021,1 14 0,0
11.12.2018 16:00:00 14,2 3,9 4 2 ESE 1020,3 20 -
11.12.2018 15:00:00 13,9 5,3 5 3 SE 1020,5 18 0,0
11.12.2018 14:00:00 12,8 5,2 5 3 S 1020,9 18 0,0
11.12.2018 13:00:00 11,4 4,1 5 3 W 1021,5 20 -
11.12.2018 12:00:00 11,2 3,7 8 4 SSE 1021,8 20 0,0
11.12.2018 11:00:00 9,3 1,7 9 5 SSE 1021,9 19 0,0
11.12.2018 10:00:00 7,5 1,3 9 5 S 1022,1 20 -
11.12.2018 09:00:00 5,9 1,0 13 7 S 1022,1 17 0,0
11.12.2018 08:00:00 5,2 0,9 11 6 S 1022,0 17 0,0
11.12.2018 07:00:00 4,9 1,2 9 5 S 1022,0 15 -
11.12.2018 06:00:00 4,7 1,4 4 2 SW 1022,3 18 0,0
11.12.2018 05:00:00 5,0 1,5 9 5 S 1022,7 16 0,0
11.12.2018 04:00:00 5,7 1,8 9 5 SSE 1023,6 15 -
11.12.2018 03:00:00 5,8 1,7 9 5 SSE 1024,4 15 0,0
11.12.2018 02:00:00 5,7 2,5 5 3 S 1025,0 16 0,0
11.12.2018 01:00:00 5,9 3,1 5 3 S 1025,8 12 -
11.12.2018 00:00:00 6,4 3,9 8 4 SSE 1026,2 12 0,0
10.12.2018 23:00:00 6,7 4,9 8 4 S 1026,6 11 0,0
10.12.2018 22:00:00 7,1 5,4 5 3 S 1027,1 12 -
10.12.2018 21:00:00 7,8 5,9 8 4 S 1027,5 12 0,0
10.12.2018 20:00:00 8,7 7,0 5 3 E 1028,3 7 0,0
10.12.2018 19:00:00 10,0 7,4 8 4 E 1028,4 10 -
10.12.2018 18:00:00 10,5 6,6 5 3 ENE 1028,5 14 0,0
10.12.2018 17:00:00 11,2 6,5 2 1 WSW 1028,8 15 0,0
10.12.2018 16:00:00 11,8 6,7 2 1 NE 1028,9 16 -
10.12.2018 15:00:00 12,1 6,8 4 2 ENE 1029,5 15 0,0
10.12.2018 14:00:00 11,4 4,8 5 3 NNE 1030,2 19 0,0
10.12.2018 13:00:00 9,9 5,3 2 1 NW 1031,4 19 -
10.12.2018 12:00:00 10,1 4,9 4 2 SE 1032,2 17 0,0
10.12.2018 11:00:00 7,2 3,1 8 4 SSE 1033,3 18 0,0
10.12.2018 10:00:00 5,3 3,5 4 2 SSE 1033,6 15 -
10.12.2018 09:00:00 5,0 3,7 8 4 SSE 1033,8 12 0,0
10.12.2018 08:00:00 5,0 4,0 4 2 S 1034,4 11 0,0
10.12.2018 07:00:00 5,0 4,3 9 5 S 1034,4 9 -
10.12.2018 06:00:00 5,7 4,8 8 4 S 1034,3 9 0,0
10.12.2018 05:00:00 6,0 5,3 8 4 S 1034,3 7 0,0
10.12.2018 04:00:00 6,9 6,2 8 4 S 1034,6 4,0 -
10.12.2018 03:00:00 7,5 6,9 5 3 S 1034,9 3,5 0,0
10.12.2018 02:00:00 8,1 7,2 5 3 S 1034,9 6 0,0
10.12.2018 01:00:00 9,0 7,8 5 3 S 1035,2 7 -
10.12.2018 00:00:00 9,7 7,8 5 3 ESE 1035,2 7 0,0
09.12.2018 23:00:00 10,4 8,3 5 3 ESE 1035,4 8 0,0
09.12.2018 22:00:00 10,5 8,3 4 2 SE 1035,6 9 -
09.12.2018 21:00:00 10,6 8,4 2 1 ESE 1035,5 8 0,0
09.12.2018 20:00:00 10,8 8,4 4 2 E 1035,0 8 0,0
09.12.2018 19:00:00 11,1 8,5 4 2 E 1034,6 10 -
09.12.2018 18:00:00 11,4 8,6 2 1 SSW 1034,0 10 0,0
09.12.2018 17:00:00 11,9 8,7 4 2 NNW 1033,6 11 0,0
09.12.2018 16:00:00 12,3 8,9 8 4 NNE 1032,9 12 -
09.12.2018 15:00:00 12,3 9,1 5 3 N 1032,8 11 0,0
09.12.2018 14:00:00 12,9 9,5 5 3 E 1032,7 16 0,0
09.12.2018 13:00:00 12,2 8,8 5 3 ENE 1033,3 20 -
09.12.2018 12:00:00 11,3 7,4 5 3 SSE 1033,8 20 0,0
09.12.2018 11:00:00 9,8 6,9 4 2 E 1033,4 20 0,0
09.12.2018 10:00:00 8,3 6,1 9 5 S 1033,0 20 -
09.12.2018 09:00:00 7,8 6,3 11 6 S 1032,7 20 0,0
09.12.2018 08:00:00 8,3 6,3 9 5 S 1032,5 20 0,0
09.12.2018 07:00:00 8,3 6,6 9 5 S 1031,5 20 -
09.12.2018 06:00:00 8,9 6,7 9 5 S 1031,4 20 0,0
09.12.2018 05:00:00 9,9 6,8 8 4 SSW 1030,9 20 0,0
09.12.2018 04:00:00 10,1 6,8 11 6 S 1030,4 20 -
09.12.2018 03:00:00 12,9 8,2 11 6 W 1029,5 20 0,0
09.12.2018 02:00:00 12,8 8,3 5 3 WSW 1029,2 20 0,0
09.12.2018 01:00:00 13,4 9,3 5 3 WNW 1029,7 20 -
09.12.2018 00:00:00 14,6 9,8 13 7 NW 1029,2 20 0,0
08.12.2018 23:00:00 14,8 9,4 9 5 NW 1029,0 20 0,0
08.12.2018 22:00:00 15,1 8,8 8 4 NW 1028,7 20 -
08.12.2018 21:00:00 13,6 7,1 11 6 SW 1028,6 20 0,0
08.12.2018 20:00:00 12,6 5,0 11 6 SSW 1028,7 19 0,0
08.12.2018 19:00:00 12,8 5,2 9 5 SSW 1028,4 15 -
08.12.2018 18:00:00 13,0 6,6 5 3 S 1028,3 20 0,0
08.12.2018 17:00:00 14,3 5,6 5 3 SSE 1027,9 20 0,0
08.12.2018 16:00:00 14,7 4,4 2 1 S 1027,6 20 -
08.12.2018 15:00:00 13,8 6,9 5 3 SSE 1028,1 20 0,0
08.12.2018 14:00:00 13,3 5,4 4 2 S 1028,5 20 0,0
08.12.2018 13:00:00 12,5 6,5 8 4 S 1029,2 20 -
08.12.2018 12:00:00 11,0 5,3 4 2 SSW 1029,8 20 0,0
08.12.2018 11:00:00 8,4 5,5 8 4 S 1030,9 19 0,0
08.12.2018 10:00:00 6,3 4,9 8 4 S 1031,8 20 -
08.12.2018 09:00:00 5,9 4,9 8 4 SSE 1032,0 15 0,0
08.12.2018 08:00:00 6,1 5,2 8 4 S 1032,0 12 0,0
08.12.2018 07:00:00 6,2 5,2 8 4 S 1031,6 15 -
08.12.2018 06:00:00 6,6 5,4 4 2 NNW 1031,0 16 0,0
08.12.2018 05:00:00 7,1 5,7 11 6 SSW 1030,8 12 0,0
08.12.2018 04:00:00 8,3 4,9 9 5 WNW 1031,5 15 -
08.12.2018 03:00:00 8,0 4,9 8 4 W 1030,6 18 0,0
08.12.2018 02:00:00 8,4 5,1 9 5 W 1030,5 18 0,0
08.12.2018 01:00:00 8,3 5,8 5 3 W 1030,9 15 -
08.12.2018 00:00:00 8,6 6,6 2 1 WSW 1030,7 17 0,0
07.12.2018 23:00:00 9,8 6,5 5 3 WNW 1030,6 18 0,0
07.12.2018 22:00:00 9,7 6,8 8 4 WSW 1030,7 15 -
07.12.2018 21:00:00 10,2 7,6 8 4 SW 1030,2 17 0,0
07.12.2018 20:00:00 10,4 7,3 9 5 NW 1030,0 15 0,0
07.12.2018 19:00:00 10,1 8,4 9 5 W 1029,6 18 -
07.12.2018 18:00:00 10,1 9,3 8 4 NW 1029,0 6 0,2
07.12.2018 17:00:00 10,4 9,0 22 12 NW 1028,1 9 0,0
07.12.2018 16:00:00 11,3 9,6 24 13 NNW 1026,8 20 -
07.12.2018 15:00:00 15,8 9,9 21 11 W 1024,7 20 0,0
07.12.2018 14:00:00 16,6 10,0 28 15 WNW 1024,1 20 0,0
07.12.2018 13:00:00 13,4 7,6 13 7 W 1024,6 20 -
07.12.2018 12:00:00 13,0 3,9 8 4 SSE 1025,0 20 0,0
07.12.2018 11:00:00 9,4 2,0 9 5 SSE 1025,5 20 0,0
07.12.2018 10:00:00 6,4 2,3 13 7 S 1026,4 20 -
07.12.2018 09:00:00 4,9 1,7 13 7 S 1026,5 20 0,0
07.12.2018 08:00:00 5,5 2,5 9 5 SSE 1026,4 19 0,0
07.12.2018 07:00:00 5,1 2,3 9 5 S 1027,2 20 -
07.12.2018 06:00:00 5,5 2,5 8 4 S 1026,0 20 0,0
07.12.2018 05:00:00 6,2 2,8 9 5 S 1026,4 20 0,0
07.12.2018 04:00:00 6,5 3,6 8 4 SSE 1027,1 20 -
07.12.2018 03:00:00 6,6 4,6 9 5 S 1027,1 20 0,0
07.12.2018 02:00:00 6,8 5,4 9 5 S 1027,6 15 0,0
07.12.2018 01:00:00 7,6 6,1 8 4 SSE 1028,4 17 -
07.12.2018 00:00:00 7,5 6,4 8 4 S 1028,9 12 0,0
06.12.2018 23:00:00 8,0 6,9 8 4 S 1029,5 11 0,0
06.12.2018 22:00:00 8,8 7,4 8 4 S 1029,6 15 -
06.12.2018 21:00:00 9,5 7,6 8 4 S 1029,8 15 0,0
06.12.2018 20:00:00 10,3 7,4 8 4 ESE 1030,0 19 0,0
06.12.2018 19:00:00 11,0 7,5 11 6 ESE 1029,8 20 -
06.12.2018 18:00:00 11,9 8,2 9 5 E 1029,6 20 0,0
06.12.2018 17:00:00 13,2 8,5 9 5 E 1029,2 20 0,0
06.12.2018 16:00:00 14,2 9,2 9 5 E 1028,9 20 -
06.12.2018 15:00:00 14,0 9,4 8 4 E 1029,0 20 0,0
06.12.2018 14:00:00 13,5 9,5 8 4 ENE 1029,6 20 0,0
06.12.2018 13:00:00 13,0 9,3 5 3 NE 1030,1 20 -
06.12.2018 12:00:00 12,8 8,7 2 1 E 1030,7 20 0,0
06.12.2018 11:00:00 10,9 8,1 4 2 SSE 1030,8 20 0,0
06.12.2018 10:00:00 8,1 7,2 8 4 SSE 1030,6 20 -
06.12.2018 09:00:00 7,5 6,8 8 4 S 1029,9 15 0,0
06.12.2018 08:00:00 7,9 7,0 8 4 S 1029,3 19 0,0
06.12.2018 07:00:00 8,6 7,8 8 4 SSE 1028,9 15 -
06.12.2018 06:00:00 8,3 7,4 11 6 SE 1028,9 14 0,0
06.12.2018 05:00:00 8,7 7,5 8 4 SSE 1028,7 16 0,0
06.12.2018 04:00:00 9,3 7,9 9 5 SE 1028,5 15 -
06.12.2018 03:00:00 9,6 8,0 8 4 SSE 1027,8 14 0,0
06.12.2018 02:00:00 11,2 9,5 8 4 E 1027,1 20 0,0
06.12.2018 01:00:00 11,6 9,0 9 5 S 1026,9 15 -
06.12.2018 00:00:00 11,9 8,9 8 4 S 1026,6 20 0,0

tt = temperature
td = dewpoint
ff = wind speed
dd = wind direction
ppp = reduced air pressure
vv = visibility
rr = precipitation

Next stations